User: anonymous   Login
Location: Unspecified
(0.0000°N, 0.0000°E)
Time: 07:16:52
(UTC+00:00)
Language:

CUBEBUG 1 - Orbit

View from above orbital plane
View from above orbital plane
View from above satellite
View from above satellite

Ground track
Ground track

The orbit data is extracted from the following two-line orbital elements,

1 39153U 13018D   17178.90823919 +.00000147 +00000-0 +26383-4 0  9997
2 39153 097.9860 271.1474 0017384 018.7126 341.4722 14.80185529225090
Epoch (UTC): 27 June 2017 21:47:51
Eccentricity: 0.0017384
inclination: 97.9860°
perigee height: 616 km
apogee height: 641 km
right ascension of ascending node: 271.1474°
argument of perigee: 18.7126°
revolutions per day: 14.80185529
mean anomaly at epoch: 341.4722°
orbit number at epoch: 22509

The dashed part of the orbit path shows where the satellite is in the earth's shadow,  

DLR